Air Resources Laboratory banner image
Air Resources Laboratory web site National Oceanic and Atmospheric Administration (NOAA)

ut roundup


Office: SLC

ASUS45 KSLC 221010
RWRUT

UTAH REGIONAL WEATHER ROUNDUP
NATIONAL WEATHER SERVICE SALT LAKE CITY UT
400 AM MDT SUN JUL 22 2018

UTZ001>011-023>025-221100-

NORTHERN UTAH

CITY           SKY/WX    TMP DP  RH WIND       PRES   REMARKS
BRIGHAM CITY   CLOUDY    80  46  29 CALM      30.12R
HILL AFB       CLOUDY    76  51  41 SE6       30.15S
LOGAN          CLOUDY    70  54  56 N8        30.12S
OGDEN          CLOUDY    77  50  38 SE7       30.12S
SALT LAKE CITY CLOUDY    76  56  49 S7        30.11R
WENDOVER       CLOUDY    81  49  32 W10       30.11R
HEBER CITY       N/A     61  55  82 CALM      30.23S
WEST JORDAN    MOCLDY    72  58  62 SW5       30.16R

$$

UTZ011>015-024>027-221100-

CENTRAL/NORTHEAST UTAH

CITY           SKY/WX    TMP DP  RH WIND       PRES   REMARKS
PROVO AIRPORT  NOT AVBL
MOAB/CANYONLAN CLOUDY    79  49  34 CALM      30.11F
DELTA          MOCLDY    70  50  49 SE5       30.17R
PRICE          CLOUDY    69  50  50 CALM        N/A
ROOSEVELT      CLOUDY    73  48  40 NW3       30.19F
VERNAL         CLOUDY    70  53  54 SW3       30.20R

$$

UTZ013>016-019>022-027-221100-

SOUTHERN UTAH

CITY           SKY/WX    TMP DP  RH WIND       PRES   REMARKS
BRYCE CANYON   NOT AVBL
CEDAR CITY     CLEAR     63  57  81 CALM      30.24S
MILFORD        CLEAR     65  58  78 S7        30.19S
ST GEORGE      CLOUDY    76  60  57 SE8       30.08S
HANKSVILLE     MOCLDY    68  55  64 CALM      30.16R
BLANDING         N/A     65  48  54 N6        30.32S

$$

REGIONAL REPORTS     COLORADO/ARIZONA

CITY           SKY/WX    TMP DP  RH WIND       PRES   REMARKS
CRAIG, CO      CLOUDY    67  54  63 NE5       30.29F
GRAND JUNCTION CLOUDY    74  59  59 CALM      30.17R
RIFLE, CO      CLOUDY    69  57  65 E8        30.24F
MONTROSE, CO   MOCLDY    70  44  39 SE9       30.26S
CORTEZ, CO     PTCLDY    62  51  67 CALM      30.26R
COLORADO CITY    N/A     64  63  94 E5        30.24S
PAGE, AZ       CLEAR     74  60  61 CALM      30.15R
GRAND CANYON   PTCLDY    53  51  93 CALM      30.34F
KINGMAN, AZ    CLEAR     66  65  96 E5        30.13R
FLAGSTAFF, AZ  MOCLDY    53  51  93 CALM      30.37S

$$

REGIONAL REPORTS    NEVADA/IDAHO/WYOMING

CITY           SKY/WX    TMP DP  RH WIND       PRES   REMARKS
LAS VEGAS, NV  MOCLDY    82  62  50 CALM      30.01F
ELY, NY        CLOUDY    66  50  56 VRB3      30.33S
ELKO, NV       CLOUDY    71  52  50 SW6       30.23R
POCATELLO, ID  MOCLDY    67  49  52 E5        30.13R
BURLEY, ID     MOCLDY    64  46  52 CALM      30.11R
FORT BRIDGER,  CLOUDY    66  46  48 CALM      30.36R
EVANSTON, WY   CLOUDY    63  49  60 S6        30.34R
ROCK SPRINGS,  MOCLDY    68  46  45 W18       30.31R
KEMMERER, WY   CLOUDY    61  43  51 N3        30.35S

$$




Office: LKN ASUS65 KLKN 220624 RTPLKN Regional Temperature And Precipitation Table...Late Evening National Weather Service Elko NV 1124 PM PDT Sat Jul 21 2018 ***Automated Airport Stations*** Values represent lows over the last 24 hours... Highs over the last 24 hours and precipitation over the last 24 hours...ending at 10 PM PST/11 PM PDT. .BR LKN 0721 P DH22/TAIRZS/TAIRZI/PPDRZZ/SFDRZZ/SDIRZZ : :ID Station Elev / Max / Min / Pcpn / :.................................................................... : EKO : Elko ASOS 5074 : 97 / 66 / 0.02 / ELY : Ely ASOS 6262 : 92 / 52 / 0.01 / P68 : Eureka ASOS 5936 : 88 / 54 / 0.42 / TPH : Tonopah ASOS 5395 : 95 / 64 / T / ENV : Wendover AWOS 4236 : 98 / 77 / 0.10 / WMC : Winnemucca ASOS 4314 : 100 / 70 / T / .END ***Manual synoptic reporting stations in north and central Nevada*** Values reflect the previous 24 hours ending at 10 PM PST/11 PM PDT *Snow stations may only report during periods of snowfall* .BR LKN 0721 P DH22/TAIRZX/TAIRZN/PPDRZZ/SFDRZZ/SDIRZZ : Snow Snow :ID Station Elev Max / Min / Pcpn / Fall / Dpth :.................................................................... : SLKN2 : Elko NWS Office 5235 : 97 / 67 / 0.02 / 0.0 / 0 SELN2 : Ely Snow 6487 : M / M / M / 0.0 / 0 SWIN2 : Winnemucca Snow 4355 : M / M / M / 0.0 / 0 .END ***Cooperative stations in north and central Nevada*** Values reflect the previous 24 hours Report time as indicated .BR LKN 0721 P DH16/TAIRZX/TAIRZN/PPDRZZ/SFDRZZ/SDIRZZ : Snow Snow :ID Station Elev Time / Max / Min / Pcpn / Fall / Dpth :.................................................................... : B23 : Battle MT. 4SE 4505 5 PM: 99 / 67 / 0.00 / 0.0 / 0 BOWN2 : Beowawe 4700 4 PM: M / M / M / M / M MCDN2 : McDermitt 4340 4 PM: 96 / 48 / 0.00 / 0.0 / 0 MTON2 : Montello 14SSE 5213 10 PM: M / M / M / M / M ORVN2 : Orovada 3W 4200 8 PM: 99 / 62 / 0.00 / 0.0 / 0 WLSN2 : Wells 7NNE 5831 9 PM: 91 / 65 / T / 0.0 / 0 WDVU1 : Wendover 1SSW 4244 11 PM: M / M / M / M / M AWH : Wild Horse Res. 6239 6 PM: 91 / 55 / 0.00 / 0.0 / 0 .END M = Missing data T = Trace amounts ASOS = Automated Surface Observing System AWOS = Automated Weather Observation System NWS = National Weather Service These data are preliminary and have not undergone final quality control (QC) by NCEI. Therefore, these data are subject to revision. Final and certified data can be accessed at the National Centers For Environmental Information (NCEI) - www.ncei.noaa.gov $$ DTK